sat.trackr.live / text

‹ back to catalog

STARLINK-37473

NORAD 68804 · 2026-089C

PAYLOAD ACTIVE UNKNOWN

§ Identity

Operator
Country
US
Launch date
2026-04-23
Launch site
AFWTR
Launch vehicle
Mass (kg)
RCS (m²)

Purposes: comms

External: N2YO · Heavens-Above · Gunter

§ Orbital elements

Epoch: 2026-09-19T07:40:18.331104Z

Period
93.91 min
Inclination
97.2857°
Eccentricity
0.0001396
Mean motion
15.33445233 rev/d
Perigee alt
464.6 km
Apogee alt
466.5 km
Semi-major
6,843.7 km
B*
3.2883e-4
RAAN
108.0293°
Arg perigee
91.5937°
Mean anomaly
268.5465°
Rev number
2,307

§ Raw data

STARLINK-374731 68804U 26089C   26262.31965661  .00010556  00000+0  32883-3 0  99992 68804  97.2857 108.0293 0001396  91.5937 268.5465 15.33445233 23073

JSON: /api/v1/satellites/68804 · /tle

For live sub-satellite position, see the globe view (requires WebGL).

§ Visibility from observer

Set your observer location to see the next 7 days of passes ≥ 10°. The values pass through the URL so the page stays shareable.

No JS? Fill the form by hand. The geolocation button needs JavaScript.